Location: Archemont
(49.1579°N, 1.7598°E)
Time: 17:43:05
(UTC+00:00)

Vanguard 1 Rocket - All Passes

Search period start: 23 April 2024 00:00
Search period end: 03 May 2024 00:00
Orbit: 652 x 4219 km, 34.3° (Epoch: 22 April)

Date Brightness Start Highest point End Pass type
(mag) Time Alt. Az. Time Alt. Az. Time Alt. Az.
23 Apr - 17:49:24 10° S 17:52:02 14° SSE 17:55:08 10° SE daylight
23 Apr - 20:11:07 10° SW 20:15:52 24° S 20:22:57 10° SE visible
23 Apr - 22:35:23 10° WSW 22:40:58 18° SSW 22:48:56 10° SSE visible
24 Apr - 19:00:38 10° SW 19:04:28 20° S 19:09:40 10° SE daylight
24 Apr - 21:23:55 10° SW 21:28:56 20° S 21:36:16 10° SSE visible
24 Apr - 23:53:50 10° SSW 23:54:36 10° SSW 23:55:25 10° SSW visible
25 Apr - 17:50:31 10° SSW 17:53:17 15° SSE 17:56:32 10° SE daylight
25 Apr - 20:12:56 10° SW 20:17:14 21° S 20:23:20 10° SE visible
25 Apr - 22:38:24 10° SW 22:42:19 13° SSW 22:47:14 10° S visible
26 Apr - 19:02:15 10° SW 19:05:49 19° S 19:10:29 10° SE daylight
26 Apr - 21:26:16 10° SW 21:30:19 16° SSW 21:35:42 10° SSE visible
27 Apr - 17:51:49 10° SSW 17:54:34 15° S 17:57:47 10° SE daylight
27 Apr - 20:14:57 10° SW 20:18:37 17° S 20:23:28 10° SSE visible
28 Apr - 16:41:55 10° S 16:43:25 11° SSE 16:44:57 10° SE daylight
28 Apr - 19:03:59 10° SW 19:07:10 17° S 19:11:07 10° SE daylight
28 Apr - 21:29:42 10° SSW 21:31:41 11° SSW 21:33:57 10° S visible
29 Apr - 17:53:16 10° SSW 17:55:53 15° S 17:58:52 10° SE daylight
29 Apr - 20:17:24 10° SW 20:19:59 13° S 20:23:04 10° SSE visible
30 Apr - 16:42:43 10° SSW 16:44:41 13° S 16:46:41 10° SE daylight
30 Apr - 19:05:59 10° SW 19:08:30 14° S 19:11:27 10° SSE daylight
01 May - 15:33:03 10° S 15:33:26 10° SSE 15:33:49 10° SSE daylight
01 May - 17:54:51 10° SSW 17:57:11 14° S 17:59:45 10° SSE daylight
02 May - 16:43:48 10° SSW 16:45:58 13° S 16:48:08 10° SSE daylight
02 May - 19:08:44 10° SSW 19:09:49 11° S 19:10:58 10° S daylight
